• In Hungary
  • List of Countries
  • For 7 days
  • Water Temperature
  • Satellite Maps
  • Weather Map
  • News
  • Weather Widgets
  • user-avatar
    Login

    Hourly Weather Puerto Padre

    Today, 24 February, Saturday

    Time Temperature Precipitation Wind Pressure Humidity
    00:00 +24°C° 0 mm 6 mps 762 mmHg 76%
    01:00 +25°C° 0 mm 5 mps 762 mmHg 77%
    02:00 +25°C° 0.1 mm 5 mps 762 mmHg 78%
    03:00 +23°C° 0.1 mm 5 mps 762 mmHg 78%
    04:00 +23°C° 0.1 mm 5 mps 761 mmHg 79%
    05:00 +23°C° 0 mm 5 mps 761 mmHg 79%
    06:00 +23°C° 0 mm 5 mps 762 mmHg 79%
    07:00 +23°C° 0 mm 5 mps 762 mmHg 80%
    08:00 +26°C° 0 mm 6 mps 762 mmHg 71%
    09:00 +28°C° 0 mm 7 mps 762 mmHg 63%
    10:00 +30°C° 0 mm 7 mps 763 mmHg 55%
    11:00 +31°C° 0 mm 8 mps 762 mmHg 52%
    12:00 +32°C° 0 mm 8 mps 762 mmHg 50%
    13:00 +33°C° 0 mm 8 mps 762 mmHg 47%
    14:00 +32°C° 0 mm 8 mps 761 mmHg 49%
    15:00 +32°C° 0 mm 7 mps 761 mmHg 50%
    16:00 +30°C° 0 mm 7 mps 761 mmHg 52%
    17:00 +29°C° 0 mm 7 mps 761 mmHg 57%
    18:00 +28°C° 0 mm 7 mps 761 mmHg 62%
    19:00 +26°C° 0 mm 6 mps 761 mmHg 67%
    20:00 +26°C° 0 mm 6 mps 761 mmHg 69%
    21:00 +26°C° 0 mm 6 mps 762 mmHg 71%
    22:00 +25°C° 0 mm 5 mps 762 mmHg 73%
    23:00 +25°C° 0 mm 5 mps 762 mmHg 75%

    Tomorrow, 25 February, Sunday

    Time Temperature Precipitation Wind Pressure Humidity
    00:00 +25°C° 0 mm 5 mps 762 mmHg 76%
    01:00 +25°C° 0 mm 5 mps 762 mmHg 78%
    02:00 +23°C° 0 mm 5 mps 762 mmHg 80%
    03:00 +23°C° 0 mm 5 mps 761 mmHg 81%
    04:00 +23°C° 0 mm 4 mps 761 mmHg 82%
    05:00 +23°C° 0 mm 4 mps 761 mmHg 82%
    06:00 +23°C° 0 mm 4 mps 762 mmHg 83%
    07:00 +23°C° 0 mm 4 mps 762 mmHg 83%
    08:00 +26°C° 0 mm 4 mps 762 mmHg 73%
    09:00 +28°C° 0 mm 5 mps 763 mmHg 64%
    10:00 +30°C° 0 mm 5 mps 763 mmHg 54%
    11:00 +32°C° 0 mm 6 mps 762 mmHg 50%
    12:00 +32°C° 0 mm 6 mps 762 mmHg 46%
    13:00 +33°C° 0 mm 6 mps 762 mmHg 43%
    14:00 +33°C° 0 mm 6 mps 761 mmHg 46%
    15:00 +32°C° 0 mm 7 mps 761 mmHg 49%
    16:00 +30°C° 0 mm 7 mps 760 mmHg 52%
    17:00 +29°C° 0 mm 7 mps 761 mmHg 59%
    18:00 +28°C° 0 mm 6 mps 761 mmHg 65%
    19:00 +26°C° 0 mm 6 mps 761 mmHg 71%
    20:00 +26°C° 0 mm 6 mps 762 mmHg 73%
    21:00 +26°C° 0 mm 5 mps 762 mmHg 75%
    22:00 +25°C° 0 mm 5 mps 763 mmHg 77%
    23:00 +25°C° 0 mm 5 mps 762 mmHg 78%

    Day after tomorrow, 26 February, Monday

    Time Temperature Precipitation Wind Pressure Humidity
    00:00 +25°C° 0 mm 5 mps 762 mmHg 79%
    01:00 +25°C° 0 mm 5 mps 762 mmHg 80%
    02:00 +23°C° 0 mm 5 mps 762 mmHg 81%
    03:00 +23°C° 0 mm 4 mps 761 mmHg 82%
    04:00 +23°C° 0 mm 4 mps 761 mmHg 83%
    05:00 +23°C° 0 mm 4 mps 762 mmHg 83%
    06:00 +23°C° 0 mm 4 mps 762 mmHg 84%
    07:00 +23°C° 0 mm 4 mps 762 mmHg 84%
    08:00 +26°C° 0.1 mm 5 mps 762 mmHg 75%
    09:00 +28°C° 0.1 mm 6 mps 763 mmHg 66%
    10:00 +30°C° 0.1 mm 6 mps 763 mmHg 57%
    11:00 +30°C° 0.1 mm 6 mps 763 mmHg 55%
    12:00 +32°C° 0.1 mm 7 mps 762 mmHg 52%
    13:00 +33°C° 0.1 mm 7 mps 762 mmHg 49%
    14:00 +32°C° 0 mm 7 mps 761 mmHg 50%
    15:00 +32°C° 0 mm 7 mps 761 mmHg 51%
    16:00 +30°C° 0 mm 6 mps 760 mmHg 52%
    17:00 +29°C° 0 mm 6 mps 761 mmHg 58%
    18:00 +27°C° 0 mm 5 mps 761 mmHg 65%
    19:00 +25°C° 0 mm 5 mps 762 mmHg 72%
    20:00 +25°C° 0 mm 5 mps 762 mmHg 76%
    21:00 +25°C° 0 mm 4 mps 762 mmHg 80%
    22:00 +23°C° 0 mm 4 mps 762 mmHg 83%
    23:00 +23°C° 0 mm 4 mps 762 mmHg 84%

    27 February, Tuesday

    Time Temperature Precipitation Wind Pressure Humidity
    00:00 +23°C° 0 mm 4 mps 762 mmHg 85%
    01:00 +23°C° 0 mm 4 mps 762 mmHg 86%
    02:00 +23°C° 0.1 mm 4 mps 762 mmHg 86%
    03:00 +23°C° 0.1 mm 4 mps 761 mmHg 86%
    04:00 +23°C° 0.1 mm 5 mps 761 mmHg 86%
    05:00 +23°C° 0 mm 5 mps 761 mmHg 85%
    06:00 +23°C° 0 mm 4 mps 762 mmHg 83%
    07:00 +22°C° 0 mm 4 mps 762 mmHg 82%
    08:00 +25°C° 0 mm 5 mps 762 mmHg 72%
    09:00 +27°C° 0 mm 5 mps 762 mmHg 62%
    10:00 +29°C° 0 mm 5 mps 763 mmHg 52%
    11:00 +30°C° 0 mm 6 mps 762 mmHg 51%
    12:00 +30°C° 0 mm 6 mps 762 mmHg 50%
    13:00 +32°C° 0 mm 6 mps 761 mmHg 49%
    14:00 +30°C° 0 mm 6 mps 761 mmHg 51%
    15:00 +30°C° 0 mm 6 mps 760 mmHg 54%
    16:00 +29°C° 0 mm 7 mps 760 mmHg 57%
    17:00 +28°C° 0 mm 6 mps 760 mmHg 62%
    18:00 +27°C° 0 mm 6 mps 760 mmHg 68%
    19:00 +26°C° 0 mm 5 mps 761 mmHg 73%
    20:00 +26°C° 0.1 mm 5 mps 761 mmHg 75%
    21:00 +25°C° 0.1 mm 5 mps 762 mmHg 77%
    22:00 +25°C° 0.1 mm 5 mps 762 mmHg 79%
    23:00 +25°C° 0 mm 5 mps 762 mmHg 79%

    28 February, Wednesday

    Time Temperature Precipitation Wind Pressure Humidity
    00:00 +23°C° 0 mm 5 mps 761 mmHg 79%
    01:00 +23°C° 0 mm 5 mps 761 mmHg 79%
    02:00 +22°C° 0 mm 4 mps 760 mmHg 80%
    03:00 +22°C° 0 mm 4 mps 760 mmHg 82%
    04:00 +21°C° 0 mm 4 mps 760 mmHg 83%
    05:00 +21°C° 0 mm 4 mps 760 mmHg 83%
    06:00 +21°C° 0 mm 4 mps 760 mmHg 83%
    07:00 +21°C° 0 mm 4 mps 761 mmHg 83%
    08:00 +23°C° 0 mm 4 mps 761 mmHg 73%
    09:00 +26°C° 0 mm 5 mps 761 mmHg 64%
    10:00 +28°C° 0 mm 5 mps 761 mmHg 55%
    11:00 +29°C° 0 mm 5 mps 761 mmHg 51%
    12:00 +30°C° 0 mm 5 mps 760 mmHg 47%
    13:00 +32°C° 0 mm 6 mps 760 mmHg 43%
    14:00 +32°C° 0 mm 6 mps 759 mmHg 45%
    15:00 +30°C° 0 mm 6 mps 759 mmHg 46%
    16:00 +30°C° 0 mm 6 mps 759 mmHg 48%
    17:00 +28°C° 0 mm 5 mps 759 mmHg 56%
    18:00 +26°C° 0 mm 5 mps 759 mmHg 64%
    19:00 +25°C° 0 mm 5 mps 760 mmHg 72%
    20:00 +23°C° 0 mm 5 mps 760 mmHg 74%
    21:00 +23°C° 0 mm 5 mps 760 mmHg 76%
    22:00 +23°C° 0 mm 5 mps 761 mmHg 78%
    23:00 +22°C° 0 mm 4 mps 761 mmHg 80%

    1 March, Thursday

    Time Temperature Precipitation Wind Pressure Humidity
    00:00 +22°C° 0 mm 4 mps 760 mmHg 82%
    01:00 +22°C° 0 mm 4 mps 760 mmHg 84%
    02:00 +22°C° 0 mm 4 mps 760 mmHg 85%
    03:00 +21°C° 0 mm 4 mps 760 mmHg 87%
    04:00 +21°C° 0 mm 3 mps 759 mmHg 89%
    05:00 +21°C° 0 mm 3 mps 760 mmHg 88%
    06:00 +21°C° 0 mm 3 mps 760 mmHg 88%
    07:00 +21°C° 0 mm 3 mps 760 mmHg 88%
    08:00 +25°C° 0 mm 4 mps 760 mmHg 76%
    09:00 +27°C° 0 mm 4 mps 761 mmHg 64%
    10:00 +29°C° 0 mm 4 mps 761 mmHg 52%
    11:00 +30°C° 0 mm 4 mps 760 mmHg 47%
    12:00 +32°C° 0 mm 4 mps 760 mmHg 43%
    13:00 +34°C° 0 mm 4 mps 759 mmHg 39%
    14:00 +33°C° 0 mm 5 mps 759 mmHg 42%
    15:00 +33°C° 0 mm 5 mps 759 mmHg 46%
    16:00 +32°C° 0 mm 5 mps 758 mmHg 49%
    17:00 +30°C° 0 mm 5 mps 759 mmHg 58%
    18:00 +28°C° 0 mm 5 mps 759 mmHg 66%
    19:00 +26°C° 0 mm 5 mps 760 mmHg 75%
    20:00 +26°C° 0 mm 4 mps 760 mmHg 77%
    21:00 +25°C° 0 mm 4 mps 760 mmHg 79%
    22:00 +25°C° 0 mm 3 mps 761 mmHg 81%
    23:00 +25°C° 0 mm 3 mps 760 mmHg 83%
    Show more